When you browse on this site, cookies collect data to enhance your experience and personalize the content and advertising you see.
Visit our Privacy Policy to learn more. By continuing to use the site, you agree to this use of cookies and data.
  • In Hungary
  • List of Countries
  • For 7 days
  • Water Temperature
  • Satellite Maps
  • Weather Map
  • News
  • Weather Widgets
  • user-avatar
    Login

    Hourly Weather Posukhivka

    Today, 20 July, Saturday

    Time Temperature Precipitation Wind Pressure Humidity
    00:00 +19°C° 0 mm 1 mps 745 mmHg 69%
    01:00 +18°C° 0 mm 1 mps 745 mmHg 71%
    02:00 +18°C° 0 mm 1 mps 745 mmHg 70%
    03:00 +18°C° 0 mm 1 mps 745 mmHg 72%
    04:00 +18°C° 0 mm 1 mps 746 mmHg 74%
    05:00 +16°C° 0 mm 1 mps 746 mmHg 76%
    06:00 +19°C° 0 mm 1 mps 746 mmHg 70%
    07:00 +21°C° 0 mm 1 mps 746 mmHg 64%
    08:00 +24°C° 0 mm 1 mps 746 mmHg 60%
    09:00 +25°C° 0 mm 1 mps 746 mmHg 55%
    10:00 +26°C° 0 mm 2 mps 746 mmHg 50%
    11:00 +28°C° 0 mm 2 mps 746 mmHg 45%
    12:00 +28°C° 0 mm 2 mps 746 mmHg 43%
    13:00 +28°C° 0 mm 2 mps 746 mmHg 41%
    14:00 +29°C° 0 mm 2 mps 746 mmHg 39%
    15:00 +29°C° 0 mm 1 mps 746 mmHg 41%
    16:00 +29°C° 0 mm 1 mps 746 mmHg 42%
    17:00 +29°C° 0 mm 1 mps 746 mmHg 43%
    18:00 +27°C° 0 mm 1 mps 746 mmHg 48%
    19:00 +25°C° 0 mm 1 mps 746 mmHg 53%
    20:00 +23°C° 0 mm 2 mps 746 mmHg 57%
    21:00 +23°C° 0.1 mm 2 mps 746 mmHg 61%
    22:00 +21°C° 0.1 mm 2 mps 746 mmHg 66%
    23:00 +20°C° 0.1 mm 2 mps 746 mmHg 70%

    Tomorrow, 21 July, Sunday

    Time Temperature Precipitation Wind Pressure Humidity
    00:00 +19°C° 0.2 mm 2 mps 746 mmHg 75%
    01:00 +19°C° 0.2 mm 2 mps 746 mmHg 80%
    02:00 +18°C° 0.2 mm 2 mps 746 mmHg 84%
    03:00 +19°C° 0 mm 1 mps 746 mmHg 85%
    04:00 +19°C° 0 mm 1 mps 745 mmHg 86%
    05:00 +19°C° 0 mm 1 mps 745 mmHg 87%
    06:00 +20°C° 0 mm 1 mps 745 mmHg 82%
    07:00 +22°C° 0 mm 1 mps 746 mmHg 76%
    08:00 +23°C° 0 mm 1 mps 746 mmHg 71%
    09:00 +25°C° 0 mm 1 mps 746 mmHg 64%
    10:00 +26°C° 0 mm 2 mps 746 mmHg 58%
    11:00 +28°C° 0 mm 2 mps 746 mmHg 52%
    12:00 +29°C° 0 mm 2 mps 746 mmHg 49%
    13:00 +29°C° 0 mm 2 mps 745 mmHg 47%
    14:00 +30°C° 0 mm 3 mps 745 mmHg 44%
    15:00 +30°C° 0 mm 3 mps 745 mmHg 46%
    16:00 +29°C° 0 mm 3 mps 745 mmHg 48%
    17:00 +29°C° 0 mm 3 mps 745 mmHg 50%
    18:00 +27°C° 0 mm 2 mps 745 mmHg 55%
    19:00 +26°C° 0 mm 1 mps 745 mmHg 60%
    20:00 +24°C° 0 mm 1 mps 745 mmHg 65%
    21:00 +24°C° 0 mm 1 mps 745 mmHg 67%
    22:00 +21°C° 0 mm 0 mps 745 mmHg 68%
    23:00 +20°C° 0 mm 0 mps 745 mmHg 70%

    Day after tomorrow, 22 July, Monday

    Time Temperature Precipitation Wind Pressure Humidity
    00:00 +20°C° 0 mm 0 mps 745 mmHg 71%
    01:00 +21°C° 0 mm 1 mps 745 mmHg 72%
    02:00 +21°C° 0 mm 1 mps 744 mmHg 74%
    03:00 +21°C° 0 mm 1 mps 744 mmHg 75%
    04:00 +20°C° 0 mm 1 mps 744 mmHg 77%
    05:00 +20°C° 0 mm 1 mps 744 mmHg 78%
    06:00 +22°C° 0.1 mm 1 mps 744 mmHg 75%
    07:00 +23°C° 0.1 mm 2 mps 744 mmHg 71%
    08:00 +25°C° 0.1 mm 2 mps 744 mmHg 67%
    09:00 +26°C° 0 mm 2 mps 744 mmHg 66%
    10:00 +26°C° 0 mm 2 mps 744 mmHg 64%
    11:00 +27°C° 0 mm 3 mps 745 mmHg 63%
    12:00 +28°C° 0.3 mm 3 mps 744 mmHg 60%
    13:00 +28°C° 0.3 mm 4 mps 744 mmHg 57%
    14:00 +29°C° 0.3 mm 4 mps 744 mmHg 54%
    15:00 +29°C° 0.3 mm 4 mps 744 mmHg 56%
    16:00 +28°C° 0.3 mm 4 mps 744 mmHg 58%
    17:00 +28°C° 0.3 mm 4 mps 743 mmHg 61%
    18:00 +26°C° 0.5 mm 4 mps 743 mmHg 69%
    19:00 +24°C° 0.5 mm 3 mps 743 mmHg 77%
    20:00 +21°C° 0.5 mm 3 mps 744 mmHg 84%
    21:00 +21°C° 0 mm 3 mps 744 mmHg 85%
    22:00 +20°C° 0 mm 3 mps 744 mmHg 86%
    23:00 +20°C° 0 mm 3 mps 744 mmHg 86%

    23 July, Tuesday

    Time Temperature Precipitation Wind Pressure Humidity
    00:00 +19°C° 0 mm 3 mps 744 mmHg 88%
    01:00 +19°C° 0 mm 3 mps 743 mmHg 91%
    02:00 +18°C° 0 mm 3 mps 743 mmHg 93%
    03:00 +18°C° 0 mm 4 mps 743 mmHg 93%
    04:00 +17°C° 0 mm 4 mps 743 mmHg 93%
    05:00 +17°C° 0 mm 4 mps 743 mmHg 93%
    06:00 +18°C° 0 mm 4 mps 743 mmHg 89%
    07:00 +19°C° 0 mm 5 mps 744 mmHg 85%
    08:00 +20°C° 0 mm 5 mps 744 mmHg 81%
    09:00 +20°C° 0 mm 5 mps 744 mmHg 79%
    10:00 +21°C° 0 mm 5 mps 744 mmHg 76%
    11:00 +21°C° 0 mm 5 mps 744 mmHg 74%
    12:00 +22°C° 0 mm 5 mps 743 mmHg 69%
    13:00 +23°C° 0 mm 5 mps 743 mmHg 63%
    14:00 +25°C° 0 mm 5 mps 743 mmHg 58%
    15:00 +25°C° 0 mm 5 mps 743 mmHg 59%
    16:00 +25°C° 0 mm 5 mps 743 mmHg 59%
    17:00 +25°C° 0 mm 5 mps 743 mmHg 59%
    18:00 +22°C° 0 mm 4 mps 743 mmHg 67%
    19:00 +20°C° 0 mm 3 mps 743 mmHg 75%
    20:00 +18°C° 0 mm 2 mps 743 mmHg 83%
    21:00 +17°C° 0 mm 2 mps 743 mmHg 85%
    22:00 +17°C° 0 mm 2 mps 743 mmHg 86%
    23:00 +16°C° 0 mm 1 mps 743 mmHg 88%

    24 July, Wednesday

    Time Temperature Precipitation Wind Pressure Humidity
    00:00 +16°C° 0 mm 2 mps 743 mmHg 90%
    01:00 +15°C° 0 mm 2 mps 743 mmHg 91%
    02:00 +15°C° 0 mm 2 mps 742 mmHg 93%
    03:00 +15°C° 0 mm 2 mps 742 mmHg 94%
    04:00 +14°C° 0 mm 2 mps 742 mmHg 95%
    05:00 +14°C° 0 mm 2 mps 742 mmHg 96%
    06:00 +16°C° 0 mm 2 mps 742 mmHg 90%
    07:00 +17°C° 0 mm 2 mps 742 mmHg 84%
    08:00 +20°C° 0 mm 1 mps 743 mmHg 79%
    09:00 +21°C° 0 mm 1 mps 743 mmHg 74%
    10:00 +21°C° 0 mm 2 mps 743 mmHg 70%
    11:00 +23°C° 0 mm 2 mps 743 mmHg 65%
    12:00 +24°C° 0 mm 2 mps 742 mmHg 62%
    13:00 +24°C° 0 mm 2 mps 742 mmHg 60%
    14:00 +25°C° 0 mm 3 mps 742 mmHg 57%
    15:00 +25°C° 0 mm 3 mps 742 mmHg 56%
    16:00 +26°C° 0 mm 3 mps 742 mmHg 55%
    17:00 +26°C° 0 mm 3 mps 742 mmHg 53%
    18:00 +24°C° 0 mm 3 mps 742 mmHg 61%
    19:00 +22°C° 0 mm 3 mps 742 mmHg 68%
    20:00 +20°C° 0 mm 2 mps 742 mmHg 75%
    21:00 +19°C° 0 mm 3 mps 742 mmHg 80%
    22:00 +18°C° 0 mm 3 mps 743 mmHg 85%
    23:00 +17°C° 0 mm 3 mps 743 mmHg 90%

    25 July, Thursday

    Time Temperature Precipitation Wind Pressure Humidity
    00:00 +17°C° 0.1 mm 3 mps 743 mmHg 90%
    01:00 +17°C° 0.1 mm 3 mps 742 mmHg 90%
    02:00 +16°C° 0.1 mm 3 mps 742 mmHg 90%
    03:00 +17°C° 0.5 mm 3 mps 742 mmHg 91%
    04:00 +17°C° 0.5 mm 3 mps 742 mmHg 93%
    05:00 +18°C° 0.5 mm 4 mps 742 mmHg 94%
    06:00 +19°C° 0 mm 4 mps 742 mmHg 90%
    07:00 +20°C° 0 mm 5 mps 742 mmHg 86%
    08:00 +21°C° 0 mm 6 mps 742 mmHg 81%
    09:00 +22°C° 0.2 mm 6 mps 742 mmHg 79%
    10:00 +22°C° 0.2 mm 6 mps 742 mmHg 77%
    11:00 +23°C° 0.2 mm 6 mps 742 mmHg 75%
    12:00 +24°C° 0.1 mm 6 mps 742 mmHg 69%
    13:00 +26°C° 0.1 mm 6 mps 742 mmHg 63%
    14:00 +27°C° 0.1 mm 6 mps 741 mmHg 58%
    15:00 +27°C° 0.1 mm 6 mps 741 mmHg 60%
    16:00 +26°C° 0.1 mm 6 mps 741 mmHg 63%
    17:00 +26°C° 0.1 mm 6 mps 741 mmHg 65%
    18:00 +25°C° 0.2 mm 5 mps 741 mmHg 71%
    19:00 +23°C° 0.2 mm 5 mps 741 mmHg 77%
    20:00 +22°C° 0.2 mm 4 mps 741 mmHg 83%
    21:00 +21°C° 0 mm 4 mps 741 mmHg 85%
    22:00 +21°C° 0 mm 5 mps 741 mmHg 87%
    23:00 +21°C° 0 mm 5 mps 741 mmHg 88%
    Show more